STARLINK-4596, 53624

Orbit data source: Space-Track

STARLINK-4596, 53624 is a payload satellite owned by SpaceX/Seattle (US) in LEO that was launched on Sun, 28 Aug 2022 UTC via an FALCON 9 launch vehicle from the Air Force Eastern Test Range (AFETR). Payload-class satellites include a variety of spacecraft equipped with specific instruments for various scientific and technological missions. These include communications satellites like Starlink; space stations such as the ISS; scientific satellites like the Hubble; Earth observation satellites from companies like Planet Labs, Umbra, and HawkEye 360; GPS; miniature CubeSats for education and research; and military/defense satellites.

Loading next visibility...
Identifier
53624, 2022-104AN
Orbit
LEO
Country
Flag of USUS
Related business
Manufacturer
SpaceX/Seattle
Mission
Operational Commercial Communications
Bus & Motor
STARLINK, Unknown motor
Mass
300 kg wet, ~290 kg dry
Launch date (UTC)
2022-08-28 (3 years ago)
Launch vehicle
FALCON 9
Launch site
Air Force Eastern Test Range (AFETR)
Object type
Payload
Rocket body
Debris
Shape & HBR
Box + 1 Pan, 10.1 m
Radar Cross Section
13.562 m², Large (>1 m²)

Expand to show TLE details & history
Last TLE update: 9 hours ago

TLE from 9 hours ago
0 STARLINK-4596
1 53624U 22104AN  26036.92908790  .00003011  00000-0  20727-3 0  9996
2 53624  53.2199  16.4560 0001384  85.3263 274.7887 15.08825155190953
Epoch: 2026-02-05T22:17Z
TLE epoch observation values (Epoch: 2026-02-05T22:17:53.194Z)
Latitude
-0.00005°
Longitude
-94.08994°
Altitude
540.607 km
Speed
7.593 km/s
True Right ascension
01h 05m 49s
True Declination
0° 00' 00"
Sunlit
Object was in daylight at epoch
Visualization orbit readout
Latitude
Unknown
Longitude
Unknown
Altitude
Unknown
Speed
Unknown
Apparent Right ascension
Unknown
Apparent Declination
Unknown
Sunlit
N/A
Visualization observer readout
Local Sidereal Time
09:06:27
Azimuth
Unknown
Elevation
Unknown
Doppler factor
Unknown
Orbital elements
Apogee altitude
540.991 km
Perigee altitude
539.076 km
Semi-major axis
6,918.17 km
Eccentricity
0.00014
Inclination
53.2199°
RAAN
16.456°
Arg. of periapsis
85.3263°
True anomaly
274.7729°
Mean anomaly
274.7887°
Eccentric anomaly
274.7808°
Mean motion
3.77187 °/min
Orbital period
95.44 mins
BSTAR
0.00020727
Loading maneuver chart data...
Computing Atmospheric mass density...
Loading historical data...
Loading historical data...
Loading historical data...
Loading historical data...
Loading historical data...
Loading historical data...
Loading historical data...

Documentation

Showing up to 5 results
|